Terminal Aerodrome Forecast
Issued by NWS

Home | Current Version | Previous Version | Text Only | Print | Product List | Glossary On
Versions: 1 2 3 4 5 6 7 8 9 10 11 12 13 14 15 16 17
000
FTUS44 KBMX 301024 AAB
TAFANB
TAF AMD
KANB 301024Z 3010/0106 24004KT P6SM BKN008
     FM301300 23006KT P6SM SCT050
     FM301500 25010KT P6SM VCTS BKN050CB
     FM302100 25012KT P6SM SCT060=

USA.gov is the U.S. government's official web portal to all federal, state and local government web resources and services.